Погода в Чучкове

Россия / Вологодская область     59°35′53″N   41°14′27″E
темп.,
°C
ветер,
м/с
пор.,
м/с
влажн.,
%
обл.,
%
осадки,
мм/ч
давл.,
гПа
погр.,
м
27 сентября, пн
пн2700:00+8с3996100 0.1 1018412
03:00+7с41096100 0.1 1019436
06:00+8ссв3995100 0.3 1021676
09:00+8ссв4992100 0.3 1023746
12:00+8ссв4990100 0.1 1024782
15:00+8ссв4989100 0.2 1026883
18:00+8св4988100 0.1 1027886
21:00+7всв4890100 0.1 1029720
28 сентября, вт
вт2800:00+4всв38945 0.1 1031268
03:00+3св28971 0.1 1032190
06:00+2св279738 0.0 1034164
09:00+6всв248094 0.0 1034323
12:00+10св235852 0.0 1034836
15:00+11ссв2353100 0.0 10331091
18:00+6с2282100 0.0 103430
21:00+5с2394100 0.0 103550
29 сентября, ср
ср2900:00+4ссв229452 0.0 103516
03:00+5ссз118773 0.0 103517
06:00+3ссз119545 0.0 103611
09:00+8ссз13787 0.0 1035245
12:00+12сз126536 0.0 1035819
15:00+12сз236799 0.0 1034954
18:00+9сз258698 0.0 1034137
21:00+8ссз229046 0.0 103451
30 сентября, чт
чт3000:00+6с11965 0.0 103410
03:00+5сз11966 0.0 103510
06:00+5сз119795 0.0 103513
09:00+9сз13845 0.0 1034233
12:00+13сз23675 0.0 1034707
15:00+15сз236515 0.0 1033884
18:00+10сз22905 0.0 103326
21:00+8сз22955 0.0 103344
1 октября, пт
пт100:00+7сз22955 0.0 103322
03:00+6сз22965 0.0 103430
06:00+5зсз22975 0.0 103439
09:00+9зсз23845 0.0 1034249
12:00+13зсз236669 0.0 1033727
15:00+13зсз2369100 0.0 1033696
18:00+9зсз2290100 0.0 103217
21:00+8з129493 0.0 103317